Regional Weather Roundup
Issued by NWS Green Bay, WI

Home | Current Version | Previous Version | Graphics & Text | Print | Product List | Glossary Off
Versions: 1 2 3 4 5 6 7 8 9 10 11 12 13 14 15 16 17 18 19 20 21 22 23 24 25 26 27 28 29 30 31 32 33 34 35 36 37 38 39 40 41 42 43 44 45 46 47 48 49 50

000
ASUS43 KGRB 221210
RWRGRB

NORTH-CENTRAL AND NORTHEAST WISCONSIN REGIONAL WEATHER ROUNDUP
NATIONAL WEATHER SERVICE GREEN BAY WI
700 AM CDT TUE JUL 22 2014

WIZ005-009-010>012-018-019-221300-
NORTH CENTRAL WISCONSIN

CITY           SKY/WX    TMP DP  RH WIND       PRES   REMARKS
IRONWOOD       PTSUNNY   73  68  83 S16G23    29.71F
MANITOWISH WTR CLOUDY    71  70  99 S9        29.81S
ARBOR VITAE    CLOUDY    72  69  90 SW9G20    29.83S
EAGLE RIVER    CLOUDY    73  68  84 SW8G16    29.83F
LAND O LAKES   CLOUDY    71  69  95 S6        29.83F FOG
RHINELANDER    CLOUDY    72  68  87 SW14      29.85F
PHILLIPS       CLOUDY    74  71  88 SW12      29.84R
ANTIGO         PTSUNNY   70  68  95 S12       29.88F
TOMAHAWK       CLOUDY    71  67  87 CALM      29.85F
MERRILL        CLOUDY    73  69  88 SW9       29.86F
$$

WIZ013-073-221300-
NORTHEAST WISCONSIN

CITY           SKY/WX    TMP DP  RH WIND       PRES   REMARKS
IRON MOUNTAIN  CLOUDY    70  67  90 SE6       29.85F FOG
MARINETTE      PTSUNNY   73  66  78 SW10      29.89R
OCONTO         PTSUNNY   74  69  86 S7        29.89S
$$

WIZ017-030-035>037-045-221300-
CENTRAL WISCONSIN

CITY           SKY/WX    TMP DP  RH WIND       PRES   REMARKS
MEDFORD        PTSUNNY   72  69  90 S10       29.87S
WAUSAU         PTSUNNY   74  69  85 S12       29.86F
MOSINEE        PTSUNNY   72  70  94 S9        29.89S
MARSHFIELD     PTSUNNY   74  69  85 S12       29.87F
WISC RAPIDS    PTSUNNY   76  68  76 S12       29.89F
STEVENS POINT  PTSUNNY   72  67  84 S9        29.90S
WAUPACA        PTSUNNY   74  70  85 S8        29.91R
SHAWANO        PTSUNNY   75  69  80 S5        29.89F
CLINTONVILLE   PTSUNNY   73  68  83 S9        29.89S
$$

WIZ038-039-048-051-221300-
FOX VALLEY

CITY           SKY/WX    TMP DP  RH WIND       PRES   REMARKS
NWS GREEN BAY  PTSUNNY   75  68  78 S13       29.91S HAZE
APPLETON       PTSUNNY   73  66  78 SW14      29.93S
OSHKOSH        PTSUNNY   73  68  84 S13G21    29.93R
FOND DU LAC    PTSUNNY   74  66  76 S15       29.94S
$$

WIZ022-050-052-221300-
EAST CENTRAL WISCONSIN

CITY           SKY/WX    TMP DP  RH WIND       PRES   REMARKS
STURGEON BAY   PTSUNNY   66  63  88 S13G20    29.93R
MANITOWOC      MOSUNNY   68  64  87 S10       29.94F
SHEBOYGAN      MOSUNNY   72  66  81 S14       29.96F
$$

LMZ563-521-522-541>543-221300-
LAKESHORE

STATION/POSITION TIME  TEMP    WIND        PRES    VSBY  WAVE
                       AIR SEA DIR/SP/G                  HT/PER
                 (UTC) (F)     (DEG/KT/KT) (MB)    (MI)  (FT/S)
SHEBOYGAN LKSHOR 1200   67     180/ 20/ 21 1014.2F
KEWAUNEE LKSHORE 1200   57     180/ 15/ 17 1014.0S
NORTHPORT PIER   1200   66     160/  9/ 14 1012.9F
N MID LAKE BUOY  1200   62 57  190/ 16/ 17 1012.5F         3/ 4
STURGEON BAY CG  1200   59 45  210/ 11     1014.4   3 1/2  1
CHAMBERS ISLAND  1200   71     170/  4/ 13 1012.5R
MENOMINEE LKSHOR 1200   71     180/  9/ 12 1013.3R
$$


USA.gov is the U.S. government's official web portal to all federal, state and local government web resources and services.